[[{"header":{"parameterUnit":"m.s-1","parameterCategory":1,"la1":30.2991,"la2":30.254,"lo1":-89.0895,"lo2":-89.0444,"dy":0.0017,"dx":0.0017,"nx":28,"ny":28,"refTime":"2025-03-19T09:00:00:Z","depth":0,"parameterNumber":2,"parameterNumberName":"U-component_of_WINDS"},"data":[0,0,0,0,0,0,0,0,0,0,0,0,0,0,0,0,0,0,0,0,0,0,0,0,0,0,0,0,0,0,0,0,0,0,0,0,0,0,0,0,0,0,0,0,0,0,0,0,0,0,0,0,0,0,0,0,0,0,5.0271,5.0272,0,5.0343,5.0344,5.0345,5.0315,5.0314,5.0312,5.031,5.0383,5.0387,5.039,0,0,0,0,0,0,0,0,0,0,0,0,0,5.0108,5.0111,5.0271,5.0272,5.0273,5.0343,5.0344,5.0345,5.0316,5.0314,5.0312,5.031,5.0382,5.0386,5.039,0,0,0,0,0,0,0,0,0,0,0,0,0,5.018,5.0112,5.0271,5.0266,5.0267,5.0343,5.0344,5.0345,5.0316,5.0314,5.0311,5.0309,5.0381,5.0386,5.0391,5.0475,0,0,5.0407,5.041,0,0,0,0,0,0,0,0,5.0176,5.0186,5.0266,5.0267,5.0267,5.0318,5.0313,5.0389,5.0317,5.0297,5.031,5.0307,5.0363,5.037,5.0389,5.0478,5.0481,5.0408,5.0411,5.0413,5.0415,0,0,0,0,0,0,0,5.0171,5.0182,5.0299,5.0267,5.0268,5.0261,5.0269,5.0327,5.0344,5.0299,5.0297,5.0306,5.0363,5.0384,5.0391,5.0482,5.0408,5.0412,5.0416,5.0418,5.0647,5.0649,0,0,0,0,0,0,5.0166,5.0178,5.0297,5.0301,5.0214,5.0266,5.0274,5.0304,5.0343,5.0347,5.0308,5.0304,5.0376,5.0384,5.0393,5.0495,5.0413,5.0418,5.0421,5.0644,5.0647,5.065,0,0,0,0,0,0,5.0162,5.0176,5.0294,5.0239,5.0254,5.0272,5.0305,5.0307,5.0328,5.035,5.0353,5.0326,5.0375,5.0386,5.0455,5.0497,5.042,5.0425,5.064,5.0645,5.0649,5.0699,0,0,0,0,0,0,5.0158,5.0175,5.0207,5.024,5.0257,5.0355,5.0308,5.031,5.0337,5.0333,5.0368,5.0371,5.0373,5.0448,5.0461,5.0503,5.0429,5.0637,5.0642,5.0647,5.0694,5.0705,5.0714,0,0,0,0,0,5.0152,5.0217,5.0209,5.0223,5.0297,5.0357,5.0367,5.0368,5.034,5.0373,5.0388,5.037,5.0491,5.0455,5.0469,5.0514,5.0634,5.0641,5.0647,5.0689,5.0703,5.0714,0,0,0,0,0,0,5.0187,5.0222,5.0212,5.029,5.0321,5.0352,5.0393,5.0382,5.0421,5.0415,5.0416,5.0424,5.0496,5.0512,5.0472,5.0599,5.0558,5.0568,5.0585,5.0598,5.0608,5.0603,5.0434,0,0,0,0,0,5.0204,5.0251,5.0278,5.0345,5.0361,5.0374,5.0401,5.04,5.0431,5.0444,5.0464,5.0495,5.0541,5.057,5.0613,5.0696,5.0704,5.0734,5.0745,5.0753,5.0761,5.0808,5.0823,5.0672,5.0672,5.0672,0,0,5.0239,5.0264,5.0293,5.0352,5.0376,5.0425,5.0385,5.0438,5.0474,5.0452,5.0519,5.0536,5.0571,5.0649,5.0684,5.0664,5.0805,5.0761,5.0767,5.0771,5.0817,5.0831,5.0844,5.0676,5.0676,5.0675,0,0,5.0329,5.0352,5.041,5.0436,5.0473,5.0482,5.0496,5.053,5.054,5.0608,5.0593,5.0637,5.0714,5.074,5.0764,5.0867,5.0853,5.0881,5.0933,5.098,5.0991,5.1002,5.104,5.1053,5.0889,5.0889,5.0889,0,5.0368,5.044,5.0442,5.0497,5.0524,5.0507,5.0568,5.0592,5.0641,5.066,5.0638,5.0737,5.0759,5.0844,5.0869,5.0888,5.0906,5.0876,5.099,5.1,5.101,5.1046,5.106,5.0893,5.0892,5.0892,5.0892,0,5.0487,5.0538,5.0581,5.063,5.0662,5.0719,5.073,5.0763,5.076,5.0772,5.0842,5.0869,5.0918,5.0938,5.0935,5.1023,5.101,5.0989,5.0948,5.1028,5.1062,5.1075,5.0897,5.0896,5.0895,5.0894,0,0,5.0599,5.065,5.0666,5.0689,5.073,5.077,5.0827,5.0876,5.0904,5.0939,5.0988,5.1056,5.1037,5.1064,5.1064,5.1104,5.1186,5.1078,5.1079,5.1098,5.1287,5.1303,5.1319,5.1178,5.118,5.1182,5.1284,0,5.0692,5.0792,5.0797,5.0889,5.0937,5.0923,5.0973,5.1005,5.1018,5.1061,5.1075,5.1124,5.1095,5.1111,5.1151,5.1168,5.1224,5.1161,5.1223,5.1226,5.1215,5.1336,5.1353,5.1448,5.1298,5.13,5.1301,0,5.0813,5.0854,5.0951,5.0988,5.1008,5.1053,5.1099,5.114,5.1176,5.1183,5.1215,5.121,5.1269,5.1228,5.131,5.1267,5.1293,5.1306,5.131,5.1315,5.1268,5.1346,5.1478,5.1492,5.1322,5.132,5.1319,0,5.0886,5.0965,5.1034,5.1054,5.1098,5.113,5.115,5.1184,5.1214,5.1254,5.1274,5.1321,5.1347,5.1384,5.1392,5.136,5.1476,5.1434,5.1484,5.1484,5.1508,5.1506,5.1646,5.1525,5.1524,5.1524,5.1524,0,5.099,5.105,5.1067,5.111,5.1177,5.1183,5.1249,5.1267,5.1298,5.1344,5.1335,5.1378,5.1387,5.1432,5.1439,5.1508,5.1519,5.1527,5.1528,5.1528,5.1527,5.1545,5.1539,5.1528,5.1527,5.1526,5.1526,0,5.1082,5.1096,5.1171,5.1207,5.1218,5.1267,5.1298,5.1339,5.1353,5.1411,5.1425,5.1446,5.15,5.1512,5.1575,5.158,5.1662,5.1656,5.165,5.165,5.1699,5.1694,5.1856,5.1878,5.1741,5.1742,5.1743,0,5.1147,5.1194,5.1236,5.1267,5.1289,5.1338,5.1369,5.1377,5.141,5.1456,5.1492,5.1544,5.1587,5.1673,5.1694,5.1743,5.1739,5.1793,5.1747,5.1746,5.1741,5.1739,5.1744,5.1801,5.1803,5.1804,5.1805,0,5.1262,5.1268,5.1313,5.1362,5.1399,5.1438,5.1474,5.15,5.1513,5.1551,5.1606,5.1639,5.1705,5.1758,5.1808,5.1829,5.182,5.1819,5.1834,5.1834,5.1829,5.1833,5.1674,5.1815,5.1814,5.1814,5.1813,5.1813,5.1344,5.1385,5.1422,5.1473,5.1502,5.1537,5.1578,5.1598,5.1644,5.1699,5.1701,5.1761,5.1798,5.1864,5.1889,5.1937,5.192,5.1941,5.1946,5.1951,5.1956,5.1821,5.1946,5.1945,5.1945,5.1945,5.1945,0,5.1459,5.1482,5.153,5.1582,5.1623,5.1612,5.1653,5.1688,5.1741,5.1777,5.182,5.1884,5.1937,5.1963,5.2015,5.2048,5.2046,5.2062,5.2059,5.2065,5.1967,5.195,5.2063,5.2063,5.2063,5.2063,5.2063,5.2063,5.1523,5.1593,5.1603,5.1688,5.1712,5.1771,5.1796,5.1829,5.1858,5.193,5.1974,5.1991,5.2023,5.2078,5.2126,5.2132,5.2152,5.2171,5.2175,5.2083,5.2071,5.206,5.2044,5.2175,5.2175,5.2269,5.227,5.227]},{"header":{"parameterUnit":"m.s-1","parameterCategory":1,"la1":30.2991,"la2":30.254,"lo1":-89.0895,"lo2":-89.0444,"dy":0.0017,"dx":0.0017,"nx":28,"ny":28,"refTime":"2025-03-19T09:00:00:Z","depth":0,"parameterNumber":3,"parameterNumberName":"V-component_of_WINDS"},"data":[0,0,0,0,0,0,0,0,0,0,0,0,0,0,0,0,0,0,0,0,0,0,0,0,0,0,0,0,0,0,0,0,0,0,0,0,0,0,0,0,0,0,0,0,0,0,0,0,0,0,0,0,0,0,0,0,0,0,-6.7161,-6.7162,0,-6.7263,-6.7264,-6.7265,-6.7256,-6.7255,-6.7253,-6.7252,-6.7352,-6.7356,-6.736,0,0,0,0,0,0,0,0,0,0,0,0,0,-6.6955,-6.6958,-6.716,-6.7162,-6.7163,-6.7263,-6.7264,-6.7266,-6.7257,-6.7255,-6.7253,-6.7251,-6.735,-6.7355,-6.736,0,0,0,0,0,0,0,0,0,0,0,0,0,-6.7049,-6.696,-6.716,-6.7171,-6.7173,-6.7262,-6.7264,-6.7266,-6.7257,-6.7255,-6.7252,-6.725,-6.7349,-6.7355,-6.7361,-6.7445,0,0,-6.738,-6.7382,0,0,0,0,0,0,0,0,-6.7044,-6.7057,-6.7168,-6.717,-6.7173,-6.7245,-6.7228,-6.7326,-6.7258,-6.7225,-6.7252,-6.7249,-6.7318,-6.7326,-6.735,-6.745,-6.7454,-6.738,-6.7384,-6.7387,-6.7388,0,0,0,0,0,0,0,-6.7037,-6.7052,-6.7201,-6.717,-6.7172,-6.7169,-6.718,-6.7247,-6.7283,-6.7228,-6.7227,-6.724,-6.7318,-6.7344,-6.7353,-6.7456,-6.738,-6.7385,-6.7389,-6.7392,-6.7632,-6.7634,0,0,0,0,0,0,-6.7029,-6.7047,-6.7198,-6.7204,-6.7101,-6.7175,-6.7187,-6.7224,-6.7282,-6.7289,-6.7242,-6.7239,-6.7335,-6.7345,-6.7356,-6.746,-6.7386,-6.7392,-6.7396,-6.7629,-6.7633,-6.7635,0,0,0,0,0,0,-6.7024,-6.7042,-6.7193,-6.7125,-6.7144,-6.7181,-6.7222,-6.7227,-6.7253,-6.7293,-6.7299,-6.7262,-6.7334,-6.7347,-6.7424,-6.7463,-6.7395,-6.7401,-6.7626,-6.763,-6.7634,-6.7668,0,0,0,0,0,0,-6.7018,-6.7041,-6.7074,-6.7126,-6.7148,-6.7261,-6.7225,-6.7231,-6.7264,-6.7262,-6.7313,-6.7319,-6.7333,-6.7415,-6.743,-6.7471,-6.7405,-6.7623,-6.7628,-6.7633,-6.7664,-6.7673,-6.7681,0,0,0,0,0,-6.7011,-6.7077,-6.7075,-6.7093,-6.719,-6.7263,-6.7275,-6.7291,-6.7267,-6.7301,-6.7327,-6.7318,-6.7457,-6.7423,-6.744,-6.7483,-6.762,-6.7626,-6.7632,-6.766,-6.7671,-6.7681,0,0,0,0,0,0,-6.7026,-6.7084,-6.7083,-6.7168,-6.7211,-6.7261,-6.7303,-6.7302,-6.735,-6.7346,-6.7361,-6.7373,-6.7451,-6.7474,-6.7435,-6.7569,-6.7535,-6.7545,-6.755,-6.7561,-6.757,-6.7562,-6.741,0,0,0,0,0,-6.704,-6.7095,-6.7142,-6.7213,-6.7235,-6.7266,-6.7298,-6.7307,-6.7351,-6.7368,-6.7399,-6.7442,-6.7495,-6.7529,-6.7581,-6.7667,-6.7679,-6.7706,-6.7714,-6.7721,-6.7729,-6.7778,-6.7791,-6.7655,-6.7655,-6.7655,0,0,-6.7067,-6.7106,-6.714,-6.7217,-6.7252,-6.7308,-6.7281,-6.7341,-6.7383,-6.7377,-6.7452,-6.7477,-6.7525,-6.7607,-6.7645,-6.7629,-6.7769,-6.7729,-6.7734,-6.7738,-6.7786,-6.7799,-6.781,-6.7659,-6.7659,-6.7658,0,0,-6.7147,-6.7182,-6.7246,-6.7282,-6.7335,-6.7355,-6.7371,-6.7422,-6.7439,-6.7515,-6.7513,-6.7562,-6.7653,-6.7688,-6.7718,-6.7815,-6.7809,-6.7831,-6.7875,-6.7923,-6.7934,-6.7943,-6.7979,-6.7991,-6.7839,-6.7839,-6.7839,0,-6.7174,-6.726,-6.7278,-6.734,-6.7375,-6.7375,-6.744,-6.7473,-6.7539,-6.7563,-6.7545,-6.7662,-6.7693,-6.7785,-6.7809,-6.7833,-6.7851,-6.7825,-6.7931,-6.7941,-6.795,-6.7984,-6.7997,-6.7842,-6.7841,-6.7841,-6.7841,0,-6.7292,-6.7352,-6.7397,-6.7464,-6.7504,-6.7567,-6.7594,-6.7632,-6.7638,-6.766,-6.7739,-6.7778,-6.7838,-6.786,-6.7865,-6.7954,-6.7943,-6.7928,-6.7894,-6.7965,-6.7997,-6.801,-6.7845,-6.7844,-6.7843,-6.7843,0,0,-6.7381,-6.746,-6.7477,-6.7508,-6.7568,-6.7614,-6.7678,-6.7739,-6.7772,-6.7818,-6.7872,-6.7951,-6.7938,-6.7972,-6.7982,-6.8024,-6.81,-6.8004,-6.8006,-6.8021,-6.82,-6.8211,-6.8226,-6.8097,-6.8099,-6.8101,-6.8196,0,-6.7468,-6.7582,-6.7601,-6.7701,-6.7757,-6.7759,-6.7815,-6.7857,-6.7881,-6.7931,-6.7956,-6.8012,-6.7991,-6.8012,-6.8054,-6.8081,-6.8136,-6.8075,-6.8146,-6.8148,-6.8134,-6.8242,-6.8253,-6.8341,-6.8209,-6.8211,-6.8213,0,-6.7583,-6.7635,-6.7741,-6.7797,-6.7821,-6.787,-6.7929,-6.7978,-6.8026,-6.804,-6.808,-6.8085,-6.8151,-6.8116,-6.8207,-6.8166,-6.8196,-6.8214,-6.8218,-6.8225,-6.8184,-6.8252,-6.8369,-6.8383,-6.8232,-6.8231,-6.8229,0,-6.7638,-6.7735,-6.7812,-6.7839,-6.7904,-6.794,-6.7968,-6.8015,-6.8052,-6.8103,-6.8127,-6.8184,-6.8215,-6.8259,-6.828,-6.8252,-6.837,-6.8336,-6.8383,-6.8383,-6.8407,-6.8405,-6.8531,-6.8427,-6.8427,-6.8427,-6.8426,0,-6.7732,-6.7797,-6.7838,-6.7885,-6.7958,-6.798,-6.8052,-6.808,-6.8122,-6.8174,-6.8179,-6.8228,-6.8252,-6.8305,-6.8321,-6.8395,-6.8408,-6.8421,-6.8425,-6.8421,-6.8419,-6.8441,-6.8435,-6.843,-6.8429,-6.8429,-6.8428,0,-6.7806,-6.7836,-6.792,-6.7977,-6.7993,-6.8044,-6.8093,-6.8138,-6.8163,-6.8229,-6.8245,-6.8283,-6.8345,-6.8371,-6.8446,-6.8457,-6.8542,-6.8541,-6.8526,-6.8527,-6.8573,-6.8569,-6.8717,-6.8738,-6.862,-6.8621,-6.8622,0,-6.7864,-6.7914,-6.7978,-6.8015,-6.8045,-6.8103,-6.8142,-6.8166,-6.8205,-6.8266,-6.8305,-6.8368,-6.8419,-6.8518,-6.8551,-6.861,-6.861,-6.8658,-6.8618,-6.8614,-6.8611,-6.8608,-6.8613,-6.8665,-6.8666,-6.8667,-6.8668,0,-6.7964,-6.7977,-6.8033,-6.8095,-6.8141,-6.819,-6.8238,-6.8267,-6.8299,-6.8343,-6.8408,-6.8448,-6.8527,-6.8589,-6.865,-6.8679,-6.8679,-6.868,-6.8694,-6.869,-6.868,-6.8687,-6.8546,-6.8676,-6.8675,-6.8675,-6.8674,-6.8674,-6.8032,-6.8078,-6.813,-6.8193,-6.8232,-6.8278,-6.8324,-6.8356,-6.8411,-6.8479,-6.8489,-6.8559,-6.8608,-6.8691,-6.8722,-6.8777,-6.8764,-6.8784,-6.8789,-6.8794,-6.8797,-6.8672,-6.8787,-6.8787,-6.8787,-6.8787,-6.8787,0,-6.8132,-6.8167,-6.8225,-6.8293,-6.8343,-6.8341,-6.8395,-6.8436,-6.8498,-6.8545,-6.8597,-6.8672,-6.8734,-6.8773,-6.8835,-6.8871,-6.8873,-6.8886,-6.8884,-6.8891,-6.8804,-6.8786,-6.8884,-6.8884,-6.8884,-6.8884,-6.8884,-6.8884,-6.819,-6.8269,-6.8289,-6.8387,-6.8421,-6.8491,-6.8522,-6.8564,-6.8602,-6.8687,-6.8739,-6.8765,-6.881,-6.8875,-6.8932,-6.8942,-6.8964,-6.8979,-6.8988,-6.8907,-6.8896,-6.8887,-6.887,-6.8984,-6.8984,-6.907,-6.9071,-6.9071]}]]